Weather History for Jonesboro, AR

Change the Weather History Date:

Sunday, July 7, 2013

  Actual Average Record
Temperature  
Mean Temperature 81 °F 81 °F  
Max Temperature 93 °F 91 °F 104 °F (1954)
Min Temperature 68 °F 71 °F 58 °F (1972)
Degree Days  
Heating Degree Days 0 0  
Month to date heating degree days 0 0  
Since 1 June heating degree days 0 1  
Since 1 July heating degree days 0 0  
Cooling Degree Days 16 16  
Month to date cooling degree days 81 111  
Year to date cooling degree days 760 707  
Since 1 June cooling degree days 530 494  
Growing Degree Days 30 (Base 50)    
Moisture  
Dew Point 69 °F    
Average Humidity 69    
Maximum Humidity 93    
Minimum Humidity 44    
Precipitation  
Precipitation 0.00 in 0.13 in 2.10 in (1909)
Month to date precipitation 0.01 0.91  
Year to date precipitation 30.35 25.94  
Snow  
Snow 0.00 in - - ()
Month to date snowfall 0.0  
Since 1 June snowfall 0.0  
Since 1 July snowfall 0.0  
Snow Depth 0.00 in    
Sea Level Pressure  
Sea Level Pressure 30.04 in    
Wind  
Wind Speed 5 mph (SE)    
Max Wind Speed 14 mph    
Max Gust Speed 22 mph    
Visibility 10 miles    
Events      
T = Trace of Precipitation, MM = Missing Value Source: NWS Daily Summary

Daily Weather History Graph

Daily Weather History Graph

Search for Another Location

Airport:

Trip Planner

Search our weather history database for the weather conditions in past years. The results will help you decide how hot, cold, wet, or windy it might be!

Date:

Astronomy

Jul. 07, 2013 Rise Set
Actual Time 5:53 AM CDT 8:21 PM CDT
Civil Twilight 5:23 AM CDT 8:51 PM CDT
Nautical Twilight 4:46 AM CDT 9:28 PM CDT
Astronomical Twilight 4:05 AM CDT 10:08 PM CDT
Moon 5:27 AM CDT (7/7) 7:48 PM CDT (7/7)
Length of Visible Light 15h 28m
Length of Day
14h 28m
Waning Crescent, 0% of the Moon is Illuminated
Jul 7
Waning Crescent
Jul 8
New
Jul 15
First Quarter
Jul 22
Full
Jul 29
Last Quarter

Hourly Weather History & Observations

Time (CDT) Temp. Heat Index Dew Point Humidity Pressure Visibility Wind Dir Wind Speed Gust Speed Precip Events Conditions
12:53 AM 72.0 °F - 68.0 °F 87% 30.01 in 10.0 mi Calm Calm - N/A   Clear
1:53 AM 71.1 °F - 68.0 °F 90% 30.01 in 10.0 mi NE 4.6 mph - N/A   Clear
2:53 AM 70.0 °F - 66.9 °F 90% 30.02 in 10.0 mi NNE 3.5 mph - N/A   Clear
3:53 AM 69.1 °F - 66.9 °F 93% 30.02 in 10.0 mi Calm Calm - N/A   Clear
4:53 AM 69.1 °F - 66.9 °F 93% 30.03 in 10.0 mi ENE 4.6 mph - N/A   Clear
5:53 AM 68.0 °F - 66.9 °F 96% 30.04 in 6.0 mi Calm Calm - N/A   Clear
6:53 AM 73.0 °F - 70.0 °F 90% 30.05 in 8.0 mi Calm Calm - N/A   Clear
7:53 AM 75.9 °F - 71.1 °F 85% 30.06 in 10.0 mi South 4.6 mph - N/A   Clear
8:53 AM 80.1 °F 83.8 °F 72.0 °F 76% 30.07 in 10.0 mi SSW 6.9 mph - N/A   Partly Cloudy
9:53 AM 82.9 °F 88.0 °F 72.0 °F 69% 30.07 in 10.0 mi South 4.6 mph - N/A   Clear
10:53 AM 87.1 °F 93.6 °F 72.0 °F 61% 30.07 in 10.0 mi South 6.9 mph - N/A   Scattered Clouds
11:53 AM 87.1 °F 92.8 °F 71.1 °F 59% 30.06 in 10.0 mi SSE 8.1 mph - N/A   Partly Cloudy
12:53 PM 89.1 °F 94.1 °F 70.0 °F 53% 30.06 in 10.0 mi SE 8.1 mph 16.1 mph N/A   Scattered Clouds
1:53 PM 89.1 °F 94.1 °F 70.0 °F 53% 30.04 in 10.0 mi South 4.6 mph - N/A   Partly Cloudy
2:53 PM 91.0 °F 95.2 °F 68.0 °F 47% 30.03 in 10.0 mi ESE 8.1 mph - N/A   Partly Cloudy
3:53 PM 91.9 °F 95.4 °F 66.9 °F 44% 30.02 in 10.0 mi SSE 9.2 mph - N/A   Partly Cloudy
4:53 PM 90.0 °F 94.5 °F 69.1 °F 50% 30.01 in 10.0 mi SE 11.5 mph - N/A   Partly Cloudy
5:53 PM 90.0 °F 92.8 °F 66.9 °F 46% 30.00 in 10.0 mi SSE 9.2 mph - N/A   Clear
6:53 PM 89.1 °F 92.1 °F 66.9 °F 48% 30.01 in 10.0 mi SE 6.9 mph - N/A   Clear
7:53 PM 86.0 °F 90.7 °F 70.0 °F 59% 30.02 in 10.0 mi SE 5.8 mph - N/A   Clear
8:53 PM 84.0 °F 89.0 °F 71.1 °F 65% 30.03 in 10.0 mi SE 4.6 mph - N/A   Clear
9:53 PM 81.0 °F 85.2 °F 72.0 °F 74% 30.05 in 10.0 mi South 3.5 mph - N/A   Clear
10:53 PM 80.1 °F 83.8 °F 72.0 °F 76% 30.05 in 10.0 mi Calm Calm - N/A   Clear
11:53 PM 73.9 °F - 71.1 °F 91% 30.06 in 10.0 mi Calm Calm - N/A   Clear